Llagostera





Hora UTC 16:25
Temperatura 24.6 ºC
Humitat 48.0 %
Pressió 1025.4 hPa
Pluja 0.0 mm
Velocitat vent 6.4 km/h
Direcció vent

Dades diàries 2020-05-25



Hora UTC (hivern +1h; estiu +2h)
Temperatura (ºC) Humitat (%) Pressió (hPa) Velocitat vent (km/h) Precipitació (mm)
Hora UTC Aire Humitat Pressió Vel. Dir. Vel. Max Dir. Intent. màx 5 min.
00:05 10.6 81.0 1027.2 1.6 9.7 0.0
00:10 10.6 81.0 1027.1 1.6 9.7 0.0
00:15 10.6 82.0 1027.0 1.6 9.7 0.0
00:20 10.4 82.0 1027.0 3.2 9.7 0.0
00:25 10.3 82.0 1027.1 6.4 9.7 0.0
00:30 10.2 82.0 1027.0 6.4 9.7 0.0
00:35 10.2 84.0 1027.1 6.4 9.7 0.0
00:40 10.4 87.0 1026.9 6.4 9.7 0.0
00:45 10.6 86.0 1027.0 4.8 9.7 0.0
00:50 10.7 86.0 1027.0 3.2 9.7 0.0
00:55 10.8 86.0 1026.9 3.2 9.7 0.0
01:00 10.9 86.0 1026.8 4.8 9.7 0.0
01:05 11.1 86.0 1026.8 4.8 9.7 0.0
01:10 11.2 86.0 1026.8 4.8 9.7 0.0
01:15 11.4 86.0 1026.8 4.8 9.7 0.0
01:20 11.6 85.0 1026.8 4.8 9.7 0.0
01:25 11.8 84.0 1026.9 4.8 9.7 0.0
01:30 11.9 82.0 1026.9 4.8 9.7 0.0
01:35 12.2 82.0 1026.8 4.8 9.7 0.0
01:40 12.2 82.0 1026.8 4.8 9.7 0.0
01:45 12.3 82.0 1026.7 4.8 9.7 0.0
01:50 12.4 82.0 1026.7 4.8 9.7 0.0
01:55 12.4 82.0 1026.6 4.8 9.7 0.0
02:00 12.4 82.0 1026.7 4.8 9.7 0.0
02:05 12.4 82.0 1026.5 3.2 9.7 0.0
02:10 12.4 82.0 1026.5 3.2 9.7 0.0
02:15 12.4 81.0 1026.5 3.2 9.7 0.0
02:20 12.4 80.0 1026.4 1.6 9.7 0.0
02:25 12.2 80.0 1026.4 3.2 9.7 0.0
02:30 12.1 80.0 1026.4 4.8 9.7 0.0
02:35 11.9 80.0 1026.5 3.2 9.7 0.0
02:40 11.8 81.0 1026.4 3.2 9.7 0.0
02:45 11.6 81.0 1026.4 3.2 9.7 0.0
02:50 11.6 82.0 1026.3 4.8 9.7 0.0
02:55 11.6 82.0 1026.4 4.8 9.7 0.0
03:00 11.7 83.0 1026.4 1.6 9.7 0.0
03:05 11.8 83.0 1026.3 0.0 9.7 0.0
03:10 11.8 83.0 1026.4 0.0 9.7 0.0
03:15 11.9 83.0 1026.4 0.0 9.7 0.0
03:20 12.0 83.0 1026.4 0.0 9.7 0.0
03:25 12.1 82.0 1026.3 0.0 9.7 0.0
03:30 12.1 82.0 1026.4 0.0 9.7 0.0
03:35 12.2 82.0 1026.4 1.6 9.7 0.0
03:40 12.2 82.0 1026.4 1.6 9.7 0.0
03:45 12.2 82.0 1026.3 0.0 9.7 0.0
03:50 12.0 82.0 1026.3 0.0 9.7 0.0
03:55 11.8 81.0 1026.3 0.0 9.7 0.0
04:00 11.7 82.0 1026.2 1.6 9.7 0.0
04:05 11.6 82.0 1026.3 1.6 9.7 0.0
04:10 11.5 82.0 1026.3 1.6 9.7 0.0
04:15 11.3 82.0 1026.2 1.6 9.7 0.0
04:20 11.3 82.0 1026.3 0.0 9.7 0.0
04:25 11.3 83.0 1026.3 0.0 9.7 0.0
04:30 11.4 84.0 1026.3 0.0 9.7 0.0
04:35 11.6 84.0 1026.3 0.0 9.7 0.0
04:40 11.7 84.0 1026.3 0.0 9.7 0.0
04:45 11.8 84.0 1026.4 0.0 9.7 0.0
04:50 12.1 84.0 1026.3 0.0 9.7 0.0
04:55 12.2 83.0 1026.5 0.0 9.7 0.0
05:00 12.3 83.0 1026.5 0.0 9.7 0.0
05:05 12.6 82.0 1026.6 0.0 9.7 0.0
05:10 12.7 80.0 1026.6 0.0 9.7 0.0
05:15 12.9 80.0 1026.6 0.0 9.7 0.0
05:20 13.1 80.0 1026.7 0.0 9.7 0.0
05:25 13.2 80.0 1026.8 0.0 9.7 0.0
05:30 13.3 80.0 1026.8 0.0 9.7 0.0
05:35 13.4 80.0 1026.8 0.0 9.7 0.0
05:40 13.6 80.0 1026.9 0.0 9.7 0.0
05:45 13.8 80.0 1026.9 0.0 9.7 0.0
05:50 14.2 80.0 1026.9 1.6 9.7 0.0
05:55 14.4 79.0 1026.9 3.2 9.7 0.0
06:00 14.8 78.0 1027.0 1.6 9.7 0.0
06:05 15.1 78.0 1027.1 1.6 9.7 0.0
06:10 15.4 78.0 1027.1 3.2 9.7 0.0
06:15 15.8 77.0 1027.1 1.6 9.7 0.0
06:20 16.2 77.0 1027.2 1.6 9.7 0.0
06:25 16.5 76.0 1027.3 1.6 9.7 0.0
06:30 16.7 74.0 1027.3 0.0 9.7 0.0
06:35 17.1 70.0 1027.3 0.0 9.7 0.0
06:40 17.4 68.0 1027.2 0.0 9.7 0.0
06:45 17.7 66.0 1027.2 0.0 9.7 0.0
06:50 17.9 67.0 1027.2 0.0 9.7 0.0
06:55 18.2 66.0 1027.2 0.0 9.7 0.0
07:00 18.4 65.0 1027.2 0.0 9.7 0.0
07:05 18.7 63.0 1027.3 1.6 9.7 0.0
07:10 18.9 62.0 1027.3 1.6 9.7 0.0
07:15 19.1 60.0 1027.2 1.6 9.7 0.0
07:20 19.2 60.0 1027.4 1.6 9.7 0.0
07:25 19.3 60.0 1027.4 1.6 9.7 0.0
07:30 19.4 58.0 1027.2 1.6 9.7 0.0
07:35 19.6 61.0 1027.3 0.0 9.7 0.0
07:40 19.7 60.0 1027.3 0.0 9.7 0.0
07:45 19.7 60.0 1027.3 0.0 9.7 0.0
07:50 19.7 57.0 1027.3 1.6 9.7 0.0
07:55 19.8 59.0 1027.2 3.2 9.7 0.0
08:00 19.8 57.0 1027.2 1.6 9.7 0.0
08:05 20.1 57.0 1027.1 1.6 9.7 0.0
08:10 20.2 55.0 1027.0 0.0 9.7 0.0
08:15 20.7 49.0 1026.9 3.2 12.9 0.0
08:20 21.1 49.0 1026.9 6.4 19.3 0.0
08:25 21.8 48.0 1026.9 8.0 19.3 0.0
08:30 22.5 43.0 1026.9 11.3 19.3 0.0
08:35 23.0 43.0 1026.8 12.9 29.0 0.0
08:40 23.4 43.0 1026.8 12.9 29.0 0.0
08:45 23.7 40.0 1026.9 16.1 29.0 0.0
08:50 23.9 41.0 1026.9 12.9 29.0 0.0
08:55 24.1 41.0 1026.8 11.3 29.0 0.0
09:00 24.1 40.0 1026.9 11.3 29.0 0.0
09:05 24.2 39.0 1027.0 11.3 29.0 0.0
09:10 24.0 41.0 1026.9 9.7 29.0 0.0
09:15 23.8 39.0 1026.9 11.3 29.0 0.0
09:20 23.8 43.0 1027.0 11.3 29.0 0.0
09:25 24.1 40.0 1027.0 8.0 29.0 0.0
09:30 24.0 38.0 1027.0 6.4 29.0 0.0
09:35 23.9 38.0 1026.9 8.0 29.0 0.0
09:40 24.1 40.0 1027.0 8.0 29.0 0.0
09:45 24.3 40.0 1027.0 6.4 29.0 0.0
09:50 24.2 38.0 1027.0 8.0 29.0 0.0
09:55 24.2 40.0 1026.9 8.0 29.0 0.0
10:00 24.7 39.0 1027.1 6.4 29.0 0.0
10:05 25.1 38.0 1027.0 8.0 29.0 0.0
10:10 25.1 39.0 1027.1 6.4 29.0 0.0
10:15 25.3 37.0 1027.0 4.8 29.0 0.0
10:20 25.2 39.0 1026.9 6.4 29.0 0.0
10:25 25.3 39.0 1026.9 8.0 29.0 0.0
10:30 25.3 39.0 1027.0 9.7 29.0 0.0
10:35 25.1 39.0 1026.9 12.9 29.0 0.0
10:40 25.3 39.0 1026.9 11.3 29.0 0.0
10:45 25.7 38.0 1026.7 11.3 29.0 0.0
10:50 25.8 37.0 1026.7 9.7 29.0 0.0
10:55 25.7 39.0 1026.6 8.0 29.0 0.0
11:00 25.9 37.0 1026.6 8.0 29.0 0.0
11:05 26.2 38.0 1026.6 8.0 29.0 0.0
11:10 26.3 35.0 1026.6 8.0 29.0 0.0
11:15 26.2 37.0 1026.6 6.4 29.0 0.0
11:20 26.4 35.0 1026.6 8.0 29.0 0.0
11:25 26.4 35.0 1026.6 8.0 29.0 0.0
11:30 26.5 38.0 1026.5 8.0 29.0 0.0
11:35 26.7 37.0 1026.4 11.3 29.0 0.0
11:40 26.8 38.0 1026.4 12.9 29.0 0.0
11:45 26.8 35.0 1026.4 9.7 29.0 0.0
11:50 26.8 35.0 1026.4 8.0 29.0 0.0
11:55 26.8 35.0 1026.4 11.3 29.0 0.0
12:00 26.8 37.0 1026.4 11.3 29.0 0.0
12:05 27.1 36.0 1026.4 9.7 29.0 0.0
12:10 27.0 37.0 1026.4 9.7 29.0 0.0
12:15 27.1 35.0 1026.3 8.0 29.0 0.0
12:20 27.3 36.0 1026.4 8.0 29.0 0.0
12:25 27.2 35.0 1026.3 9.7 29.0 0.0
12:30 27.4 36.0 1026.1 8.0 29.0 0.0
12:35 27.6 37.0 1026.1 6.4 29.0 0.0
12:40 27.5 34.0 1026.1 6.4 29.0 0.0
12:45 27.3 41.0 1026.0 4.8 29.0 0.0
12:50 27.2 40.0 1025.9 4.8 29.0 0.0
12:55 27.0 41.0 1025.9 6.4 29.0 0.0
13:00 26.9 41.0 1025.9 6.4 29.0 0.0
13:05 26.8 41.0 1025.9 6.4 29.0 0.0
13:10 26.6 44.0 1025.9 6.4 29.0 0.0
13:15 26.5 42.0 1025.9 6.4 29.0 0.0
13:20 26.5 41.0 1025.8 6.4 29.0 0.0
13:25 26.6 42.0 1025.8 4.8 29.0 0.0
13:30 26.7 40.0 1025.8 4.8 29.0 0.0
13:35 26.6 41.0 1025.8 3.2 29.0 0.0
13:40 26.2 40.0 1025.8 4.8 29.0 0.0
13:45 26.2 40.0 1025.8 4.8 29.0 0.0
13:50 26.1 42.0 1025.8 8.0 29.0 0.0
13:55 26.1 44.0 1025.8 8.0 29.0 0.0
14:00 26.1 42.0 1025.8 8.0 29.0 0.0
14:05 25.9 42.0 1025.7 8.0 29.0 0.0
14:10 25.9 42.0 1025.7 8.0 29.0 0.0
14:15 25.9 42.0 1025.7 6.4 29.0 0.0
14:20 25.6 43.0 1025.6 9.7 29.0 0.0
14:25 25.6 47.0 1025.6 9.7 29.0 0.0
14:30 25.6 41.0 1025.6 8.0 29.0 0.0
14:35 25.8 43.0 1025.6 9.7 29.0 0.0
14:40 25.6 40.0 1025.6 8.0 29.0 0.0
14:45 25.7 44.0 1025.5 4.8 29.0 0.0
14:50 25.7 43.0 1025.5 6.4 29.0 0.0
14:55 25.8 43.0 1025.5 8.0 29.0 0.0
15:00 25.8 43.0 1025.5 6.4 29.0 0.0
15:05 25.6 44.0 1025.5 8.0 29.0 0.0
15:10 25.4 45.0 1025.5 6.4 29.0 0.0
15:15 25.4 46.0 1025.5 6.4 29.0 0.0
15:20 25.5 45.0 1025.5 6.4 29.0 0.0
15:25 25.6 45.0 1025.5 6.4 29.0 0.0
15:30 25.3 46.0 1025.5 8.0 29.0 0.0
15:35 25.1 46.0 1025.6 8.0 29.0 0.0
15:40 24.9 47.0 1025.5 6.4 29.0 0.0
15:45 24.8 48.0 1025.5 6.4 29.0 0.0
15:50 24.7 49.0 1025.5 4.8 29.0 0.0
15:55 24.9 48.0 1025.5 6.4 29.0 0.0
16:00 24.8 49.0 1025.5 6.4 29.0 0.0
16:05 24.8 48.0 1025.5 8.0 29.0 0.0
16:10 24.7 50.0 1025.4 6.4 29.0 0.0
16:15 24.6 51.0 1025.4 6.4 29.0 0.0
16:20 24.6 48.0 1025.5 6.4 29.0 0.0
16:25 24.6 48.0 1025.4 6.4 29.0 0.0
Màxima 27.6 87.0 1027.4 16.1 29.0 0.0
Mínima 10.2 34.0 1025.4
Total 0.0